.
WxDataArchive / Data Records for 2014-02-05
2014-02-04 February 2014 2014-02-06

Data Records for Wednesday, 05 February 2014

Time	Temp	Chill	HIndex	Humid	Dewpt	 Wind 	HiWind	WindDir	Rain 	Barom 
-----	----	-----	------	-----	-----	------	------	-------	-----	----- 
00:00	19.7	19.7	19.7	88	16.7	3	9	112	0.00	30.048 
00:05	19.7	13.9	19.7	89	17.0	4	11	90	0.00	30.048 
00:10	19.7	19.7	19.7	89	17.0	3	13	112	0.00	30.048 
00:15	19.7	19.7	19.7	89	17.0	3	12	90	0.00	30.033 
00:20	19.7	19.7	19.7	89	17.0	2	7	90	0.00	30.033 
00:25	19.7	19.7	19.7	89	17.0	2	10	112	0.00	30.033 
00:30	19.7	19.7	19.7	89	17.0	1	5	112	0.00	30.016 
00:35	19.7	19.7	19.7	89	17.0	2	5	112	0.00	30.016 
00:40	19.7	19.7	19.7	89	17.0	2	11	112	0.00	30.016 
00:45	19.7	19.7	19.7	89	17.0	2	9	90	0.00	30.022 
00:50	19.7	19.7	19.7	89	17.0	2	19	112	0.00	30.022 
00:55	19.5	19.5	19.5	89	16.8	3	9	112	0.00	30.022 
01:00	19.5	19.5	19.5	89	16.8	3	11	112	0.00	30.011 
01:05	19.5	19.5	19.5	89	16.8	2	9	90	0.00	30.011 
01:10	19.5	19.5	19.5	89	16.8	2	11	45	0.00	30.011 
01:15	19.5	19.5	19.5	89	16.8	3	9	112	0.00	29.998 
01:20	19.5	19.5	19.5	89	16.8	2	12	112	0.00	29.998 
01:25	19.5	19.5	19.5	89	16.8	2	7	90	0.00	29.998 
01:30	19.5	19.5	19.5	89	16.8	3	11	112	0.00	29.982 
01:35	19.4	19.4	19.4	89	16.7	2	7	90	0.00	29.982 
01:40	19.4	19.4	19.4	89	16.7	2	6	68	0.00	29.982 
01:45	19.5	19.5	19.5	89	16.8	2	7	90	0.00	29.983 
01:50	19.5	19.5	19.5	89	16.8	2	7	135	0.00	29.983 
01:55	19.5	19.5	19.5	88	16.5	2	7	90	0.00	29.983 
02:00	19.5	19.5	19.5	88	16.5	2	6	90	0.00	29.986 
02:05	19.5	19.5	19.5	88	16.5	3	9	45	0.00	29.986 
02:10	19.5	19.5	19.5	88	16.5	2	9	112	0.00	29.986 
02:15	19.5	19.5	19.5	88	16.5	3	10	112	0.00	29.970 
02:20	19.5	19.5	19.5	88	16.5	2	6	90	0.00	29.970 
02:25	19.5	19.5	19.5	88	16.5	3	10	90	0.00	29.970 
02:30	19.5	19.5	19.5	88	16.5	3	7	90	0.00	29.952 
02:35	19.5	19.5	19.5	88	16.5	3	9	45	0.00	29.952 
02:40	19.5	19.5	19.5	88	16.5	3	7	90	0.00	29.952 
02:45	19.5	19.5	19.5	88	16.5	3	11	112	0.00	29.936 
02:50	19.5	19.5	19.5	88	16.5	3	12	112	0.00	29.936 
02:55	19.5	19.5	19.5	88	16.5	3	11	112	0.00	29.936 
03:00	19.4	19.4	19.4	88	16.4	3	12	112	0.00	29.915 
03:05	19.4	19.4	19.4	88	16.4	3	15	45	0.00	29.915 
03:10	19.4	19.4	19.4	88	16.4	3	12	68	0.00	29.915 
03:15	19.2	19.2	19.2	88	16.2	2	7	90	0.00	29.904 
03:20	19.2	19.2	19.2	88	16.2	3	10	68	0.00	29.904 
03:25	19.2	19.2	19.2	89	16.5	2	7	45	0.00	29.904 
03:30	19.2	19.2	19.2	89	16.5	3	14	90	0.00	29.888 
03:35	19.2	19.2	19.2	89	16.5	2	9	90	0.00	29.888 
03:40	19.2	19.2	19.2	89	16.5	3	10	112	0.00	29.888 
03:45	19.2	19.2	19.2	89	16.5	2	7	112	0.00	29.887 
03:50	19.4	19.4	19.4	89	16.7	2	6	90	0.00	29.887 
03:55	19.4	19.4	19.4	89	16.7	2	6	112	0.00	29.887 
04:00	19.4	19.4	19.4	89	16.7	2	7	90	0.00	29.876 
04:05	19.4	19.4	19.4	89	16.7	3	9	68	0.00	29.876 
04:10	19.4	19.4	19.4	89	16.7	3	11	90	0.00	29.876 
04:15	19.4	19.4	19.4	89	16.7	2	8	112	0.00	29.873 
04:20	19.4	19.4	19.4	89	16.7	2	5	45	0.00	29.873 
04:25	19.4	19.4	19.4	89	16.7	1	4	45	0.00	29.873 
04:30	19.4	19.4	19.4	89	16.7	2	6	90	0.00	29.875 
04:35	19.4	19.4	19.4	89	16.7	3	10	90	0.00	29.875 
04:40	19.4	19.4	19.4	89	16.7	2	6	68	0.00	29.875 
04:45	19.4	19.4	19.4	89	16.7	1	5	112	0.00	29.865 
04:50	19.4	19.4	19.4	89	16.7	3	11	112	0.00	29.865 
04:55	19.2	19.2	19.2	89	16.5	2	7	112	0.00	29.865 
05:00	19.2	19.2	19.2	89	16.5	2	5	0	0.00	29.859 
05:05	19.2	19.2	19.2	89	16.5	3	11	112	0.00	29.859 
05:10	19.2	19.2	19.2	89	16.5	1	5	0	0.00	29.859 
05:15	19.2	19.2	19.2	89	16.5	1	4	338	0.00	29.858 
05:20	19.2	19.2	19.2	89	16.5	2	7	68	0.00	29.858 
05:25	19.2	19.2	19.2	89	16.5	3	10	45	0.00	29.858 
05:30	19.4	19.4	19.4	90	17.0	1	5	135	0.00	29.856 
05:35	19.4	19.4	19.4	90	17.0	1	6	338	0.00	29.856 
05:40	19.4	19.4	19.4	90	17.0	1	4	0	0.00	29.856 
05:45	19.4	19.4	19.4	90	17.0	2	5	0	0.00	29.860 
05:50	19.4	19.4	19.4	90	17.0	2	9	338	0.00	29.860 
05:55	19.5	19.5	19.5	90	17.1	1	5	338	0.00	29.860 
06:00	19.5	19.5	19.5	90	17.1	1	5	338	0.00	29.883 
06:05	19.5	19.5	19.5	90	17.1	2	6	338	0.00	29.883 
06:10	19.7	19.7	19.7	90	17.3	1	4	45	0.00	29.883 
06:15	19.7	19.7	19.7	90	17.3	2	6	338	0.00	29.890 
06:20	19.7	19.7	19.7	90	17.3	1	5	0	0.00	29.890 
06:25	19.7	19.7	19.7	90	17.3	2	7	338	0.00	29.890 
06:30	19.7	19.7	19.7	90	17.3	2	5	338	0.00	29.878 
06:35	19.7	19.7	19.7	90	17.3	2	4	0	0.00	29.878 
06:40	19.7	19.7	19.7	90	17.3	2	5	315	0.00	29.878 
06:45	19.7	19.7	19.7	90	17.3	2	7	315	0.00	29.893 
06:50	19.5	19.5	19.5	90	17.1	1	5	338	0.00	29.893 
06:55	19.5	19.5	19.5	90	17.1	1	3	338	0.00	29.893 
07:00	19.5	19.5	19.5	90	17.1	1	4	338	0.00	29.895 
07:05	19.5	19.5	19.5	90	17.1	2	6	315	0.00	29.895 
07:10	19.5	19.5	19.5	90	17.1	1	4	0	0.00	29.895 
07:15	19.5	19.5	19.5	90	17.1	1	3	0	0.00	29.898 
07:20	19.4	19.4	19.4	90	17.0	1	6	112	0.00	29.898 
07:25	19.4	19.4	19.4	90	17.0	0	3	112	0.00	29.898 
07:30	19.4	19.4	19.4	90	17.0	1	3	338	0.00	29.907 
07:35	19.2	19.2	19.2	90	16.8	1	3	338	0.00	29.907 
07:40	19.2	19.2	19.2	90	16.8	1	4	338	0.00	29.907 
07:45	19.2	19.2	19.2	90	16.8	1	3	338	0.00	29.907 
07:50	19.2	19.2	19.2	90	16.8	2	5	338	0.00	29.907 
07:55	19.1	19.1	19.1	90	16.7	1	4	338	0.00	29.907 
08:00	19.1	19.1	19.1	90	16.7	1	4	0	0.00	29.918 
08:05	19.2	19.2	19.2	90	16.8	0	2	0	0.00	29.918 
08:10	19.2	19.2	19.2	90	16.8	1	5	0	0.00	29.918 
08:15	19.2	19.2	19.2	90	16.8	1	3	0	0.00	29.936 
08:20	19.4	19.4	19.4	90	17.0	1	4	338	0.00	29.936 
08:25	19.4	19.4	19.4	90	17.0	1	4	338	0.00	29.936 
08:30	19.4	19.4	19.4	90	17.0	1	6	338	0.00	29.944 
08:35	19.4	19.4	19.4	90	17.0	2	6	338	0.00	29.944 
08:40	19.4	19.4	19.4	90	17.0	1	3	338	0.00	29.944 
08:45	19.5	19.5	19.5	89	16.8	2	6	338	0.00	29.948 
08:50	19.5	19.5	19.5	89	16.8	1	5	338	0.00	29.948 
08:55	19.5	19.5	19.5	89	16.8	1	4	338	0.00	29.948 
09:00	19.7	19.7	19.7	89	17.0	1	5	338	0.00	29.950 
09:05	19.7	19.7	19.7	89	17.0	2	6	338	0.00	29.950 
09:10	19.9	19.9	19.9	89	17.2	2	7	338	0.00	29.950 
09:15	20.0	20.0	20.0	89	17.3	1	4	315	0.00	29.949 
09:20	20.2	20.2	20.2	89	17.5	2	4	338	0.00	29.949 
09:25	20.3	20.3	20.3	89	17.6	2	5	0	0.00	29.949 
09:30	20.5	20.5	20.5	89	17.8	2	5	338	0.00	29.952 
09:35	20.6	20.6	20.6	89	17.9	2	7	315	0.00	29.952 
09:40	20.6	20.6	20.6	89	17.9	2	9	338	0.00	29.952 
09:45	20.8	20.8	20.8	89	18.1	2	6	338	0.00	29.966 
09:50	21.0	21.0	21.0	89	18.3	2	5	338	0.00	29.966 
09:55	21.0	21.0	21.0	89	18.3	2	5	338	0.00	29.966 
10:00	21.0	21.0	21.0	89	18.3	1	5	338	0.00	29.976 
10:05	21.0	21.0	21.0	89	18.3	2	4	338	0.00	29.976 
10:10	21.1	21.1	21.1	89	18.4	2	5	338	0.00	29.976 
10:15	21.4	21.4	21.4	89	18.7	2	6	338	0.00	29.986 
10:20	21.8	21.8	21.8	89	19.1	1	5	338	0.00	29.986 
10:25	22.1	22.1	22.1	89	19.4	1	4	338	0.00	29.986 
10:30	22.2	22.2	22.2	89	19.5	2	7	338	0.00	30.000 
10:35	22.2	22.2	22.2	89	19.5	2	8	338	0.00	30.000 
10:40	22.2	22.2	22.2	89	19.5	2	4	338	0.00	30.000 
10:45	22.2	22.2	22.2	88	19.2	3	6	338	0.00	30.013 
10:50	22.4	22.4	22.4	88	19.4	2	6	338	0.00	30.013 
10:55	22.5	22.5	22.5	88	19.5	2	9	338	0.00	30.013 
11:00	22.7	22.7	22.7	88	19.7	2	6	338	0.00	30.027 
11:05	22.9	22.9	22.9	88	19.9	2	6	0	0.00	30.027 
11:10	22.9	22.9	22.9	88	19.9	2	7	315	0.00	30.027 
11:15	23.0	23.0	23.0	88	20.0	2	5	338	0.00	30.030 
11:20	23.2	23.2	23.2	88	20.2	1	3	338	0.00	30.030 
11:25	23.2	23.2	23.2	88	20.2	2	6	0	0.00	30.030 
11:30	23.2	23.2	23.2	88	20.2	2	6	338	0.00	30.044 
11:35	23.3	23.3	23.3	88	20.3	2	7	292	0.00	30.044 
11:40	23.5	23.5	23.5	88	20.5	3	9	338	0.00	30.044 
11:45	23.5	23.5	23.5	87	20.2	3	6	338	0.00	30.058 
11:50	23.6	23.6	23.6	87	20.3	3	7	0	0.00	30.058 
11:55	23.6	23.6	23.6	87	20.3	3	9	338	0.00	30.058 
12:00	23.6	23.6	23.6	86	20.0	3	7	338	0.00	30.062 
12:05	23.9	23.9	23.9	86	20.3	2	7	338	0.00	30.062 
12:10	24.1	24.1	24.1	86	20.5	3	10	338	0.00	30.062 
12:15	24.1	24.1	24.1	86	20.5	2	6	45	0.00	30.071 
12:20	24.1	24.1	24.1	86	20.5	2	7	338	0.00	30.071 
12:25	24.1	24.1	24.1	85	20.3	3	9	0	0.00	30.071 
12:30	24.1	24.1	24.1	85	20.3	2	6	338	0.00	30.075 
12:35	24.4	24.4	24.4	85	20.6	2	4	338	0.00	30.075 
12:40	24.7	24.7	24.7	85	20.8	2	5	338	0.00	30.075 
12:45	25.0	25.0	25.0	84	20.9	2	5	338	0.00	30.088 
12:50	25.1	25.1	25.1	84	21.0	2	7	0	0.00	30.088 
12:55	25.1	25.1	25.1	83	20.7	2	7	338	0.00	30.088 
13:00	25.0	25.0	25.0	82	20.3	3	7	338	0.00	30.082 
13:05	24.8	24.8	24.8	82	20.1	3	7	338	0.00	30.082 
13:10	24.7	19.6	24.7	82	20.0	4	9	338	0.00	30.082 
13:15	24.7	24.7	24.7	83	20.3	3	6	338	0.00	30.090 
13:20	24.7	24.7	24.7	83	20.3	3	9	338	0.00	30.090 
13:25	24.7	24.7	24.7	83	20.3	3	10	315	0.00	30.090 
13:30	24.5	24.5	24.5	83	20.1	3	8	338	0.00	30.098 
13:35	24.4	19.3	24.4	83	20.0	4	9	338	0.00	30.098 
13:40	24.4	24.4	24.4	83	20.0	3	6	315	0.00	30.098 
13:45	24.4	24.4	24.4	82	19.7	3	10	315	0.00	30.104 
13:50	24.7	24.7	24.7	82	20.0	2	5	338	0.00	30.104 
13:55	24.8	24.8	24.8	81	19.8	2	7	292	0.00	30.104 
14:00	24.8	24.8	24.8	81	19.8	2	7	338	0.00	30.112 
14:05	24.5	19.4	24.5	81	19.5	4	14	315	0.00	30.112 
14:10	24.7	24.7	24.7	81	19.7	2	6	338	0.00	30.112 
14:15	24.7	24.7	24.7	80	19.4	2	6	338	0.00	30.121 
14:20	24.7	24.7	24.7	80	19.4	3	6	338	0.00	30.121 
14:25	24.7	24.7	24.7	80	19.4	1	5	338	0.00	30.121 
14:30	24.7	24.7	24.7	80	19.4	2	8	338	0.00	30.131 
14:35	24.7	24.7	24.7	81	19.7	1	6	338	0.00	30.131 
14:40	24.7	24.7	24.7	80	19.4	2	6	315	0.00	30.131 
14:45	24.5	24.5	24.5	80	19.2	2	10	338	0.00	30.137 
14:50	24.5	24.5	24.5	80	19.2	2	4	338	0.00	30.137 
14:55	24.7	24.7	24.7	80	19.4	2	6	338	0.00	30.137 
15:00	24.5	24.5	24.5	79	18.9	3	7	338	0.00	30.147 
15:05	24.7	24.7	24.7	79	19.1	1	4	338	0.00	30.147 
15:10	24.8	24.8	24.8	78	18.9	1	3	0	0.00	30.147 
15:15	25.1	25.1	25.1	78	19.2	1	3	22	0.00	30.155 
15:20	25.0	25.0	25.0	77	18.8	2	5	338	0.00	30.155 
15:25	24.8	24.8	24.8	77	18.6	3	9	338	0.00	30.155 
15:30	24.5	24.5	24.5	77	18.3	2	7	315	0.00	30.169 
15:35	24.2	24.2	24.2	77	18.1	3	6	338	0.00	30.169 
15:40	24.2	24.2	24.2	77	18.1	1	4	270	0.00	30.169 
15:45	24.4	24.4	24.4	76	17.9	2	5	0	0.00	30.182 
15:50	24.2	24.2	24.2	76	17.7	3	8	338	0.00	30.182 
15:55	24.1	24.1	24.1	76	17.7	3	6	338	0.00	30.182 
16:00	23.9	23.9	23.9	76	17.5	3	6	292	0.00	30.200 
16:05	23.9	23.9	23.9	76	17.5	2	6	338	0.00	30.200 
16:10	23.9	23.9	23.9	76	17.5	2	6	315	0.00	30.200 
16:15	24.1	24.1	24.1	76	17.7	2	4	338	0.00	30.206 
16:20	24.1	24.1	24.1	76	17.7	2	6	338	0.00	30.206 
16:25	23.9	23.9	23.9	76	17.5	2	5	338	0.00	30.206 
16:30	23.8	23.8	23.8	75	17.1	2	6	338	0.00	30.216 
16:35	23.8	23.8	23.8	75	17.1	1	3	315	0.00	30.216 
16:40	23.6	23.6	23.6	74	16.6	2	5	338	0.00	30.216 
16:45	23.5	23.5	23.5	74	16.5	2	7	338	0.00	30.226 
16:50	23.2	23.2	23.2	75	16.5	2	5	338	0.00	30.226 
16:55	23.2	23.2	23.2	76	16.8	2	6	338	0.00	30.226 
17:00	23.0	23.0	23.0	76	16.6	2	5	338	0.00	30.236 
17:05	23.0	23.0	23.0	77	16.9	1	3	338	0.00	30.236 
17:10	23.0	23.0	23.0	78	17.2	0	2	292	0.00	30.236 
17:15	23.2	23.2	23.2	78	17.4	1	3	292	0.00	30.255 
17:20	23.0	23.0	23.0	78	17.2	1	3	315	0.00	30.255 
17:25	23.0	23.0	23.0	79	17.5	1	4	315	0.00	30.255 
17:30	22.9	22.9	22.9	79	17.4	1	3	315	0.00	30.266 
17:35	22.9	22.9	22.9	79	17.4	0	2	292	0.00	30.266 
17:40	22.7	22.7	22.7	80	17.5	1	4	315	0.00	30.266 
17:45	22.7	22.7	22.7	80	17.5	1	4	315	0.00	30.269 
17:50	22.7	22.7	22.7	81	17.8	0	1	315	0.00	30.269 
17:55	22.5	22.5	22.5	81	17.6	0	3	315	0.00	30.269 
18:00	22.5	22.5	22.5	81	17.6	0	3	315	0.00	30.281 
18:05	22.4	22.4	22.4	81	17.5	1	3	270	0.00	30.281 
18:10	22.4	22.4	22.4	82	17.8	1	5	270	0.00	30.281 
18:15	22.2	22.2	22.2	82	17.6	0	2	270	0.00	30.293 
18:20	22.2	22.2	22.2	82	17.6	0	2	270	0.00	30.293 
18:25	22.2	22.2	22.2	82	17.6	0	2	270	0.00	30.293 
18:30	22.1	22.1	22.1	82	17.5	0	2	270	0.00	30.296 
18:35	22.1	22.1	22.1	82	17.5	0	2	270	0.00	30.296 
18:40	21.9	21.9	21.9	82	17.3	0	2	270	0.00	30.296 
18:45	21.9	21.9	21.9	81	17.0	0	2	270	0.00	30.302 
18:50	21.9	21.9	21.9	81	17.0	1	3	270	0.00	30.302 
18:55	21.8	21.8	21.8	80	16.6	0	2	270	0.00	30.302 
19:00	21.8	21.8	21.8	79	16.3	0	1	270	0.00	30.312 
19:05	21.6	21.6	21.6	79	16.1	0	2	270	0.00	30.312 
19:10	21.6	21.6	21.6	79	16.1	0	2	270	0.00	30.312 
19:15	21.4	21.4	21.4	79	15.9	1	5	270	0.00	30.320 
19:20	21.4	21.4	21.4	78	15.6	0	3	315	0.00	30.320 
19:25	21.3	21.3	21.3	78	15.5	0	3	315	0.00	30.320 
19:30	21.3	21.3	21.3	78	15.5	0	2	315	0.00	30.329 
19:35	21.1	21.1	21.1	78	15.3	0	1	315	0.00	30.329 
19:40	21.1	21.1	21.1	78	15.3	0	2	315	0.00	30.329 
19:45	21.0	21.0	21.0	78	15.2	0	1	315	0.00	30.331 
19:50	20.8	20.8	20.8	78	15.0	0	1	315	0.00	30.331 
19:55	20.8	20.8	20.8	78	15.0	0	1	315	0.00	30.331 
20:00	20.6	20.6	20.6	78	14.8	0	1	315	0.00	30.333 
20:05	20.6	20.6	20.6	78	14.8	0	2	315	0.00	30.333 
20:10	20.6	20.6	20.6	78	14.8	0	2	315	0.00	30.333 
20:15	20.6	20.6	20.6	78	14.8	0	1	315	0.00	30.342 
20:20	20.6	20.6	20.6	78	14.8	0	0	---	0.00	30.342 
20:25	20.6	20.6	20.6	78	14.8	0	0	---	0.00	30.342 
20:30	20.6	20.6	20.6	78	14.8	0	1	315	0.00	30.347 
20:35	20.8	20.8	20.8	78	15.0	0	2	315	0.00	30.347 
20:40	20.8	20.8	20.8	78	15.0	0	2	315	0.00	30.347 
20:45	20.6	20.6	20.6	78	14.8	0	1	315	0.00	30.350 
20:50	20.6	20.6	20.6	78	14.8	0	2	315	0.00	30.350 
20:55	20.6	20.6	20.6	78	14.8	0	2	315	0.00	30.350 
21:00	20.6	20.6	20.6	77	14.6	1	4	338	0.00	30.354 
21:05	20.6	20.6	20.6	77	14.6	0	3	292	0.00	30.354 
21:10	20.5	20.5	20.5	77	14.5	1	3	292	0.00	30.354 
21:15	20.2	20.2	20.2	77	14.2	1	5	292	0.00	30.362 
21:20	20.0	20.0	20.0	77	14.0	1	3	292	0.00	30.362 
21:25	19.7	19.7	19.7	77	13.7	0	3	292	0.00	30.362 
21:30	19.7	19.7	19.7	77	13.7	0	4	292	0.00	30.372 
21:35	19.5	19.5	19.5	77	13.5	0	2	292	0.00	30.372 
21:40	19.4	19.4	19.4	77	13.4	0	2	292	0.00	30.372 
21:45	19.4	19.4	19.4	77	13.4	0	3	292	0.00	30.377 
21:50	19.4	19.4	19.4	77	13.4	0	2	292	0.00	30.377 
21:55	19.4	19.4	19.4	77	13.4	0	1	292	0.00	30.377 
22:00	19.2	19.2	19.2	77	13.2	0	0	---	0.00	30.378 
22:05	19.2	19.2	19.2	77	13.2	0	2	292	0.00	30.378 
22:10	18.9	18.9	18.9	77	12.9	0	1	292	0.00	30.378 
22:15	18.8	18.8	18.8	77	12.8	0	3	292	0.00	30.385 
22:20	18.4	18.4	18.4	77	12.4	0	1	315	0.00	30.385 
22:25	18.3	18.3	18.3	77	12.3	0	3	315	0.00	30.385 
22:30	18.1	18.1	18.1	77	12.1	0	2	315	0.00	30.391 
22:35	18.0	18.0	18.0	77	12.0	0	2	315	0.00	30.391 
22:40	18.0	18.0	18.0	77	12.0	0	3	315	0.00	30.391 
22:45	17.8	17.8	17.8	77	11.8	0	3	315	0.00	30.393 
22:50	17.8	17.8	17.8	77	11.8	0	1	315	0.00	30.393 
22:55	17.7	17.7	17.7	77	11.7	0	3	315	0.00	30.393 
23:00	17.5	17.5	17.5	77	11.5	0	2	315	0.00	30.392 
23:05	17.3	17.3	17.3	77	11.3	0	2	315	0.00	30.392 
23:10	17.3	17.3	17.3	77	11.3	0	3	315	0.00	30.392 
23:15	17.2	17.2	17.2	77	11.3	0	2	315	0.00	30.395 
23:20	17.3	17.3	17.3	77	11.3	0	3	315	0.00	30.395 
23:25	17.3	17.3	17.3	77	11.3	1	2	315	0.00	30.395 
23:30	17.2	17.2	17.2	77	11.3	1	3	315	0.00	30.398 
23:35	17.2	17.2	17.2	77	11.3	1	2	315	0.00	30.398 
23:40	17.2	17.2	17.2	76	11.0	0	2	315	0.00	30.398 
23:45	17.0	17.0	17.0	76	10.8	1	4	315	0.00	30.404 
23:50	16.9	16.9	16.9	76	10.7	1	4	315	0.00	30.404 
23:55	16.9	16.9	16.9	76	10.7	1	4	315	0.00	30.404 

CoCoRaHS
IN-AL-39
A2 Web Hosting
Creative Commons License
GoDaddy
search engine by freefind advanced

loaded 2018-11-18 12:26:25 • last modified 2010-11-18 10:43:29
Privacy PolicyDisclaimer
• wx.awcolley.com is powered by PmWiki v.2002016 •
• all content (unless otherwise noted) © 2018 A W Colley